Wind_Speed
32 30 30 27 27 29 28 23 22 20 19 18 16 14 17 19 30 30 31 29 29 31 29 31 35 36 35 33 33 34 35 44 41 39 38 38 39 39 42 43 43 44 44 44 42 42 40 34 40 38 37 40 38 37
33 30 30 29 28 29 31 28 23 21 20 19 18 16 14 18 22 30 31 31 30 32 31 31 34 35 31 30 31 32 35 34 29 31 38 37 37 37 38 36 39 41 44 43 43 42 43 38 39 36 39 38 37 38
33 31 31 30 28 29 30 31 27 22 20 20 19 18 16 17 19 26 30 32 32 32 32 31 34 35 35 36 37 38 37 34 32 30 26 29 32 34 39 40 37 39 40 41 40 43 40 37 34 35 34 34 32 33
36 33 32 32 30 30 30 30 27 23 20 20 19 18 18 15 18 22 28 30 31 33 33 32 33 34 34 33 33 35 36 32 30 31 31 31 32 32 35 37 35 39 40 40 41 42 40 39 36 34 31 33 37 25
38 35 34 32 30 31 32 32 28 23 21 21 19 19 19 17 18 20 24 26 30 32 33 30 30 30 32 32 32 34 33 33 31 31 32 31 33 34 35 35 35 36 42 43 43 42 39 39 38 35 35 34 30 16
37 36 31 29 32 32 32 33 30 26 21 21 19 19 18 17 17 18 22 25 28 31 30 29 28 28 31 31 31 32 33 34 34 32 32 32 33 36 37 39 40 37 38 40 42 42 43 41 39 36 32 31 33 29
30 27 28 31 31 30 32 33 32 28 23 22 20 18 18 17 16 16 21 24 27 28 27 27 26 24 26 27 29 31 32 32 34 34 34 33 34 37 38 41 41 41 40 40 40 41 40 38 40 35 36 32 28 26
31 31 32 31 29 29 32 34 32 29 25 23 21 19 19 17 16 17 21 23 25 27 25 24 23 22 24 25 25 27 28 29 31 32 33 35 36 40 39 39 42 41 42 41 40 40 40 39 40 39 39 37 36 36
40 37 35 32 29 28 31 34 32 30 27 23 21 19 18 16 17 17 20 22 24 25 23 20 18 19 20 20 20 22 25 27 28 30 32 33 35 38 38 39 41 42 43 42 42 43 46 45 43 45 47 44 44 44
43 41 39 38 34 30 31 35 33 30 28 23 21 18 18 15 16 17 20 22 24 23 21 20 16 18 15 17 18 17 19 22 25 28 29 31 32 36 38 37 39 45 48 47 46 45 43 45 50 51 50 49 49 48
40 41 42 41 39 35 33 34 33 31 28 22 19 17 16 15 16 18 22 23 23 21 20 19 19 20 10 11 13 14 15 16 16 19 24 25 27 31 35 38 40 42 45 45 43 46 49 48 49 50 49 49 49 49
37 37 37 38 38 38 36 33 33 30 27 23 21 20 17 15 17 19 24 23 21 21 20 19 20 20 13 12 11 12 13 13 13 13 14 14 16 19 22 26 31 33 35 37 42 45 46 46 47 49 49 47 47 47
38 36 33 32 35 36 37 34 32 32 27 24 23 20 17 18 19 21 24 21 21 20 18 16 16 16 16 12 13 13 11 11 10 11 11 11 13 16 16 18 19 22 25 28 34 36 36 38 41 42 45 45 43 44
40 37 34 30 28 36 37 37 32 29 25 24 22 19 18 18 19 24 24 20 19 17 18 18 15 13 14 13 12 14 13 13 17 12 14 13 13 19 18 20 22 24 24 26 28 30 32 34 36 37 38 39 38 38
40 37 33 30 26 34 37 38 33 28 27 26 21 20 21 19 21 26 23 22 21 21 20 18 15 13 12 12 11 12 13 14 17 14 13 13 15 19 22 24 24 24 25 26 27 28 29 30 32 33 34 35 36 36
39 34 30 31 34 32 35 38 33 30 29 24 21 20 20 22 27 26 23 21 23 21 20 18 15 13 13 13 12 13 12 11 10 9 11 15 18 19 18 18 19 20 20 21 22 24 26 29 31 30 32 33 36 39
33 30 30 33 31 31 36 38 34 33 27 24 21 21 22 26 25 23 23 15 24 21 19 17 16 14 12 14 15 15 12 9 8 11 14 13 13 15 17 19 22 25 27 27 26 28 27 24 26 27 27 27 29 32
31 30 31 29 29 35 33 36 33 28 25 23 22 24 26 25 22 20 20 16 16 17 16 16 16 14 14 12 10 12 11 12 17 17 13 13 16 17 21 17 14 14 12 14 15 14 16 14 15 20 24 25 27 27
31 30 27 31 31 36 37 33 29 27 26 26 26 32 15 17 22 21 20 18 17 16 16 16 14 12 9 8 9 11 13 15 12 11 11 14 19 16 11 10 9 6 4 7 8 8 7 7 6 6 5 4 9 15
28 34 33 37 38 34 31 29 27 27 26 23 26 26 22 21 23 21 18 16 17 17 15 14 10 8 7 9 10 12 12 10 10 12 11 3 1 1 3 4 4 2 5 4 4 5 4 2 4 3 3 1 1 4
37 39 39 35 31 28 26 25 25 25 23 24 27 25 24 23 20 15 16 18 14 12 10 9 11 12 12 12 7 9 9 11 7 4 11 9 9 8 7 4 4 8 2 2 0 3 3 5 5 3 2 1 3 1
34 31 29 29 29 30 27 25 26 25 23 25 25 25 21 18 19 18 16 12 11 10 9 10 10 9 10 8 7 7 6 3 8 10 15 9 9 7 6 7 5 1 3 2 2 2 1 1 2 1 2 3 3 4
29 27 27 28 28 28 26 23 22 21 23 24 24 21 22 19 16 15 13 12 11 9 8 10 10 11 10 7 5 10 11 9 10 13 12 8 5 3 6 5 3 1 3 4 4 3 5 6 3 2 1 0 2 3
25 23 23 24 25 24 21 20 19 21 22 21 21 20 18 15 14 13 11 12 10 9 10 13 12 9 5 7 12 11 12 12 11 12 12 9 4 3 8 12 15 15 13 12 11 11 11 10 11 11 9 9 9 9
23 22 22 20 20 19 19 19 21 20 20 18 17 16 15 13 13 12 12 10 10 11 12 11 9 9 13 16 13 12 11 8 8 12 10 6 3 8 9 10 10 10 9 8 8 8 8 7 6 7 5 5 4 5
21 20 20 20 19 19 19 18 17 16 15 15 14 14 13 13 14 12 11 11 12 10 5 7 20 22 19 15 11 10 9 11 13 11 12 13 11 9 7 6 6 7 7 7 7 8 8 8 7 7 5 2 2 3
21 20 20 19 19 18 17 16 16 16 15 14 14 14 13 13 14 15 15 15 11 11 22 22 20 19 15 11 13 16 18 17 16 14 12 11 8 6 5 4 5 6 6 7 8 9 9 8 7 5 4 3 6 7
20 19 18 17 15 15 14 14 14 14 15 14 14 15 16 17 17 16 15 13 13 19 19 18 16 16 19 18 17 16 15 15 13 10 8 5 4 4 5 6 8 10 10 11 11 11 11 10 9 9 8 7 8 10
17 16 15 15 13 13 13 14 17 17 18 17 16 17 18 17 16 15 18 21 21 20 19 19 21 20 18 17 14 12 9 7 5 5 3 1 3 6 8 9 10 11 12 12 12 11 9 7 6 6 6 6 5 6
14 14 14 16 17 16 17 16 14 13 14 17 20 23 24 24 23 22 20 18 17 20 20 19 17 15 13 12 9 7 5 1 2 4 6 6 7 8 9 10 11 11 12 12 11 9 7 6 5 6 7 8 9 11
20 20 19 19 19 19 20 22 23 24 25 26 26 23 21 19 17 15 17 19 19 18 16 14 12 11 8 6 4 3 1 1 3 3 4 6 8 9 10 11 11 11 11 11 10 8 7 7 8 8 9 9 9 11
20 20 21 22 24 25 25 25 23 23 24 23 20 18 16 16 16 16 17 17 15 12 9 7 5 4 5 4 3 2 2 3 4 4 5 7 8 10 11 11 11 11 10 8 8 8 8 8 10 11 13 14 15 14
18 18 18 19 19 19 20 20 19 18 19 18 17 14 12 14 15 15 14 12 10 7 4 3 4 4 3 4 5 6 7 7 7 7 8 9 11 12 12 12 12 12 12 11 11 12 12 13 14 16 16 16 15 14
Wind_Direction
260 263 256 260 258 254 258 264 269 276 279 270 270 264 245 241 226 225 224 223 221 219 217 219 219 220 227 229 233 239 241 235 237 234 231 232 234 232 234 238 241 244 247 248 253 250 250 244 248 250 257 264 267 270
257 258 252 256 258 255 254 258 263 269 273 268 266 260 262 246 236 226 225 223 222 221 214 218 220 222 219 225 227 225 226 231 229 236 233 234 234 234 237 237 239 241 244 247 250 250 252 249 251 249 258 266 269 270
256 257 252 252 257 257 253 253 255 260 267 268 267 257 259 254 245 229 228 224 221 222 217 213 220 223 221 219 221 228 229 227 225 225 226 233 237 237 237 234 232 238 240 245 247 245 251 253 255 263 266 267 266 264
256 256 251 250 256 257 249 247 246 250 258 265 265 257 251 264 245 235 229 226 222 221 220 216 221 226 226 225 225 228 233 231 228 227 224 220 226 232 237 241 239 240 244 244 248 248 250 254 256 257 264 265 273 289
255 253 251 251 255 257 246 240 237 241 248 256 261 255 251 263 251 244 230 225 221 219 219 214 218 223 228 228 227 229 230 234 227 224 226 225 226 228 232 238 241 238 244 247 251 256 258 261 263 262 262 268 277 277
253 252 250 251 255 251 240 234 231 233 242 248 251 250 248 263 255 246 231 223 220 218 218 214 217 222 225 225 227 229 230 233 234 229 226 226 227 228 229 233 239 238 240 247 250 254 258 259 263 264 264 267 268 264
250 250 247 247 247 243 235 228 226 228 236 243 246 247 245 262 257 243 229 219 216 215 216 211 212 218 224 226 225 229 231 233 237 235 232 229 228 231 231 236 240 243 242 243 247 251 256 259 260 255 262 275 267 265
241 240 240 241 241 237 230 223 223 226 231 239 240 243 241 258 253 236 225 216 212 214 215 212 209 215 221 223 223 226 230 232 233 234 232 229 228 235 235 237 242 243 248 251 253 254 255 261 259 257 272 269 267 266
237 234 235 236 235 231 224 219 221 223 227 234 234 237 236 250 245 229 219 211 209 212 214 213 208 206 221 223 225 229 232 233 234 237 234 233 232 237 238 237 242 247 245 246 249 251 253 256 255 257 264 265 265 265
235 232 231 231 229 224 221 217 218 221 224 232 231 229 231 246 240 221 213 208 208 210 212 211 200 198 211 214 224 229 234 237 236 237 237 236 234 233 236 236 236 243 249 249 248 248 251 252 252 255 258 260 263 267
231 228 227 227 226 220 218 216 217 219 223 229 226 223 228 240 230 216 207 205 206 207 207 200 197 191 180 200 209 214 224 230 228 231 235 234 234 236 239 241 240 242 246 252 256 255 254 256 258 259 259 259 260 261
220 216 216 219 222 219 213 213 212 215 219 218 213 215 221 226 218 209 199 200 202 204 202 198 196 192 196 195 202 205 215 215 216 222 225 223 224 234 242 246 247 247 245 244 247 250 255 259 260 261 262 263 263 263
212 211 209 208 207 206 208 206 206 211 213 212 209 210 219 219 209 200 192 194 198 200 198 198 194 195 205 219 218 220 227 225 217 223 225 215 217 221 232 240 248 251 248 247 248 251 252 254 257 258 261 261 263 265
200 201 201 200 199 194 191 198 201 203 205 202 202 208 215 209 200 189 186 193 195 196 193 190 192 200 211 218 226 226 228 222 228 212 220 229 251 237 233 239 246 254 254 250 251 254 255 255 257 260 261 262 261 259
190 194 197 197 193 190 188 190 197 197 194 193 197 204 200 190 186 183 186 186 187 197 196 194 193 203 215 225 233 229 217 224 226 235 234 240 244 250 252 256 259 261 260 257 255 258 259 259 259 259 259 260 261 262
181 184 188 188 186 189 184 185 185 187 184 186 197 200 186 179 180 182 187 193 185 195 194 198 200 207 215 218 218 224 220 221 226 245 248 248 248 251 261 263 259 256 255 255 252 257 259 264 267 264 263 263 263 264
172 173 176 179 179 174 176 177 182 177 177 185 186 178 176 176 182 190 194 181 186 192 196 202 210 223 220 221 221 220 226 234 242 251 257 258 258 255 261 267 271 271 265 258 258 260 264 267 265 265 263 262 264 263
164 164 159 163 164 165 164 167 162 168 173 173 167 162 168 178 183 190 192 187 188 193 200 211 219 228 225 225 230 234 237 241 246 249 254 249 259 270 276 275 270 277 271 243 253 246 262 262 277 278 273 272 270 265
150 150 151 153 148 157 151 154 161 168 168 166 164 159 150 171 181 183 186 184 194 200 209 218 222 219 224 236 236 232 230 238 246 244 253 263 271 280 271 256 263 246 269 241 239 240 252 288 294 279 262 282 291 260
139 137 135 144 140 145 153 159 160 160 163 159 161 171 174 180 173 176 177 184 197 208 213 211 204 201 209 222 214 211 220 226 240 254 275 285 178 98 155 157 156 190 259 255 245 236 226 297 265 242 251 278 50 120
127 133 130 134 140 145 148 152 153 151 151 159 169 169 170 169 165 165 187 191 196 197 198 185 192 211 216 221 202 197 211 235 285 123 140 120 120 98 99 121 105 22 51 129 76 264 275 245 237 254 314 85 183 155
124 129 135 140 142 141 141 149 152 154 157 159 164 165 161 161 173 186 183 183 185 191 183 191 212 198 192 195 188 210 239 163 158 162 157 143 113 102 70 48 84 221 62 76 109 111 115 168 172 191 145 154 186 217
126 132 136 141 142 143 144 147 150 158 156 157 161 164 169 176 176 175 177 176 179 176 178 177 176 168 170 192 214 151 142 148 158 169 172 169 156 57 2 11 1 64 123 88 71 67 76 81 88 97 102 231 1 114
119 127 129 131 134 140 144 147 149 153 157 158 161 167 174 174 169 167 170 169 168 168 171 167 165 171 180 142 139 134 124 121 131 141 150 151 102 67 85 80 83 83 82 78 72 70 76 81 78 72 73 79 83 87
118 122 125 130 136 139 142 143 143 149 155 159 164 166 163 162 161 164 163 162 159 165 171 184 174 155 145 136 126 118 123 126 130 151 134 149 155 116 107 87 77 69 64 60 49 44 43 42 51 60 60 57 70 106
112 116 119 124 128 133 137 140 145 147 149 150 152 152 155 157 155 157 159 153 155 170 182 147 139 138 138 134 128 122 133 135 141 141 130 119 123 116 99 75 51 37 34 32 37 23 13 14 11 17 21 14 186 162
111 114 117 121 125 128 131 134 137 141 144 145 147 152 153 155 153 151 151 149 152 129 129 129 136 136 134 131 131 123 119 118 115 115 115 115 112 97 77 44 17 358 350 349 355 353 337 336 335 327 316 261 234 235
111 114 116 119 121 126 129 132 133 135 139 144 146 147 147 144 144 145 146 152 152 136 134 135 134 130 126 127 125 121 121 120 118 114 109 97 69 26 3 340 328 323 323 321 316 306 303 300 300 303 296 279 256 254
106 109 112 116 122 119 113 120 126 130 133 132 134 137 143 145 144 143 137 133 131 131 132 131 132 131 132 129 125 121 113 100 106 118 110 43 333 328 327 330 332 335 330 326 323 325 330 323 320 313 307 302 288 269
111 109 107 104 106 110 115 116 115 117 123 125 126 123 122 127 129 128 131 135 136 133 134 132 132 133 133 135 129 116 109 109 324 358 4 2 357 355 351 348 342 337 336 334 336 343 350 352 337 323 316 310 305 302
102 103 104 105 107 106 107 110 113 115 122 127 125 123 128 130 132 130 135 140 138 132 133 140 150 153 141 135 141 188 193 14 5 9 7 355 353 350 344 339 334 338 341 342 343 347 345 341 335 331 326 323 317 306
106 108 107 112 119 121 117 120 117 117 125 130 130 135 135 136 138 142 139 133 139 141 141 133 147 180 184 196 229 288 336 343 349 347 341 336 338 337 333 328 329 332 334 336 333 336 339 336 330 326 321 317 314 313
104 108 115 120 124 121 126 128 128 129 131 136 137 140 150 154 153 156 158 156 147 135 140 183 222 245 258 288 310 313 311 317 319 312 311 318 320 317 316 317 319 316 313 313 313 312 312 312 314 316 318 319 316 313
Height
5689 5691 5692 5693 5694 5696 5697 5698 5698 5698 5698 5698 5698 5699 5699 5701 5704 5708 5712 5718 5723 5727 5734 5739 5743 5748 5753 5760 5767 5772 5777 5783 5790 5796 5800 5805 5811 5816 5820 5823 5826 5829 5831 5833 5834 5836 5838 5844 5844 5847 5848 5847 5851 5851
5679 5681 5683 5685 5686 5687 5689 5691 5692 5692 5692 5693 5693 5694 5695 5696 5698 5701 5706 5710 5716 5720 5727 5731 5736 5741 5748 5752 5757 5762 5767 5771 5780 5785 5790 5796 5802 5808 5811 5816 5818 5820 5820 5826 5827 5830 5828 5833 5834 5838 5840 5843 5845 5844
5668 5671 5673 5676 5677 5679 5681 5683 5685 5686 5687 5687 5688 5689 5690 5691 5692 5695 5698 5703 5709 5714 5720 5724 5728 5733 5739 5743 5748 5753 5758 5766 5771 5775 5781 5785 5791 5798 5800 5804 5807 5807 5812 5814 5818 5817 5822 5824 5829 5830 5833 5832 5833 5833
5658 5660 5663 5666 5668 5670 5672 5674 5677 5679 5681 5682 5683 5684 5685 5685 5687 5688 5692 5697 5702 5707 5712 5719 5722 5726 5731 5736 5741 5746 5750 5758 5765 5769 5772 5777 5783 5788 5790 5794 5801 5803 5805 5806 5808 5810 5814 5817 5822 5823 5824 5825 5830 5824
5646 5649 5652 5655 5657 5660 5663 5666 5669 5672 5674 5676 5677 5678 5679 5680 5681 5683 5686 5690 5695 5700 5705 5712 5714 5719 5723 5729 5733 5739 5744 5747 5755 5761 5765 5770 5774 5779 5781 5786 5790 5795 5796 5799 5801 5804 5808 5809 5812 5817 5819 5818 5817 5816
5633 5637 5640 5644 5646 5649 5653 5657 5661 5665 5667 5670 5672 5673 5674 5675 5676 5678 5680 5684 5689 5693 5699 5705 5710 5713 5716 5721 5727 5731 5735 5739 5744 5751 5757 5761 5766 5770 5773 5776 5780 5785 5788 5791 5793 5794 5796 5802 5804 5808 5811 5812 5810 5808
5620 5625 5629 5633 5636 5639 5643 5648 5653 5657 5661 5664 5666 5668 5670 5671 5672 5674 5676 5679 5683 5688 5693 5699 5703 5707 5711 5715 5720 5724 5728 5732 5736 5742 5748 5753 5757 5760 5765 5767 5771 5775 5779 5783 5785 5787 5789 5792 5794 5797 5800 5803 5803 5803
5608 5614 5618 5622 5626 5630 5634 5640 5645 5650 5654 5657 5660 5663 5665 5666 5667 5668 5671 5674 5679 5684 5688 5693 5698 5702 5706 5710 5714 5718 5722 5725 5729 5734 5738 5742 5747 5751 5756 5761 5761 5767 5769 5774 5777 5779 5781 5785 5786 5788 5790 5792 5794 5795
5595 5602 5607 5612 5617 5622 5626 5632 5638 5643 5648 5651 5655 5657 5660 5661 5662 5664 5667 5671 5675 5681 5684 5689 5694 5698 5701 5705 5708 5712 5715 5718 5723 5726 5730 5735 5739 5743 5748 5752 5753 5756 5759 5763 5767 5769 5771 5771 5775 5777 5776 5777 5778 5783
5581 5588 5595 5602 5608 5614 5619 5625 5631 5636 5641 5645 5649 5653 5655 5657 5658 5661 5664 5668 5673 5677 5681 5685 5690 5694 5698 5700 5703 5707 5709 5712 5715 5717 5722 5727 5731 5734 5737 5741 5744 5744 5745 5749 5753 5757 5760 5760 5760 5763 5764 5765 5768 5769
5566 5575 5583 5590 5597 5605 5611 5618 5624 5630 5636 5641 5645 5648 5651 5653 5655 5658 5661 5666 5671 5675 5678 5682 5686 5691 5694 5698 5700 5702 5704 5707 5710 5712 5714 5718 5721 5725 5728 5731 5734 5737 5738 5741 5743 5743 5743 5746 5747 5748 5751 5753 5755 5758
5553 5561 5570 5578 5586 5595 5604 5611 5618 5625 5630 5635 5639 5643 5646 5649 5652 5655 5659 5664 5669 5672 5676 5680 5683 5688 5692 5695 5697 5699 5701 5703 5705 5707 5709 5712 5716 5717 5719 5721 5724 5727 5729 5730 5730 5731 5733 5734 5735 5735 5737 5739 5742 5743
5542 5552 5561 5569 5576 5585 5595 5604 5611 5618 5625 5630 5635 5639 5642 5645 5648 5652 5657 5663 5667 5671 5675 5679 5683 5688 5691 5692 5694 5696 5699 5701 5703 5704 5706 5707 5709 5712 5713 5715 5717 5718 5719 5720 5721 5722 5723 5723 5723 5725 5725 5727 5730 5730
5533 5545 5555 5563 5571 5578 5587 5598 5606 5614 5621 5626 5632 5636 5639 5642 5646 5651 5656 5662 5667 5671 5674 5677 5681 5684 5686 5689 5691 5693 5696 5697 5697 5700 5703 5705 5706 5708 5708 5709 5710 5710 5711 5712 5713 5713 5713 5714 5714 5715 5715 5717 5719 5721
5527 5539 5549 5558 5566 5574 5582 5592 5602 5610 5617 5623 5629 5632 5635 5640 5644 5649 5655 5660 5665 5668 5672 5676 5679 5682 5685 5687 5689 5691 5693 5694 5697 5698 5700 5701 5702 5702 5702 5702 5703 5704 5704 5704 5705 5705 5705 5705 5706 5706 5706 5707 5708 5709
5525 5536 5546 5555 5563 5571 5579 5589 5599 5607 5614 5621 5626 5630 5635 5639 5643 5649 5655 5658 5662 5666 5671 5675 5678 5681 5683 5684 5686 5687 5689 5692 5694 5695 5696 5697 5697 5697 5698 5698 5698 5697 5698 5697 5697 5698 5697 5697 5696 5697 5697 5697 5698 5698
5528 5538 5546 5554 5563 5570 5579 5589 5598 5606 5614 5619 5624 5628 5634 5640 5644 5649 5652 5658 5661 5665 5669 5673 5676 5678 5681 5681 5682 5684 5687 5690 5691 5691 5691 5692 5693 5693 5692 5692 5691 5690 5689 5689 5689 5689 5689 5689 5687 5687 5687 5687 5686 5686
5531 5540 5549 5557 5564 5572 5581 5590 5599 5607 5613 5619 5623 5629 5635 5640 5645 5648 5652 5657 5661 5664 5668 5671 5673 5675 5676 5679 5681 5682 5684 5685 5685 5686 5688 5688 5688 5687 5686 5685 5684 5682 5679 5681 5682 5683 5684 5683 5682 5680 5678 5676 5675 5674
5539 5546 5553 5560 5568 5577 5586 5594 5601 5607 5613 5619 5624 5629 5634 5640 5645 5649 5653 5658 5661 5664 5667 5669 5670 5672 5675 5677 5678 5678 5679 5681 5682 5683 5684 5684 5682 5681 5680 5680 5679 5679 5678 5679 5679 5680 5680 5679 5678 5676 5674 5671 5669 5666
5546 5552 5559 5568 5575 5584 5591 5597 5603 5609 5615 5621 5626 5631 5635 5639 5645 5649 5654 5657 5659 5662 5664 5666 5669 5671 5673 5674 5674 5675 5677 5678 5679 5680 5679 5679 5679 5678 5677 5677 5677 5678 5678 5678 5678 5677 5677 5677 5676 5676 5675 5673 5671 5668
5557 5564 5570 5577 5583 5590 5596 5602 5608 5613 5618 5622 5627 5632 5637 5641 5647 5651 5653 5655 5659 5661 5663 5666 5667 5668 5670 5671 5672 5674 5676 5676 5676 5677 5678 5679 5680 5680 5679 5678 5678 5678 5676 5676 5677 5676 5675 5675 5676 5676 5675 5674 5673 5671
5570 5575 5581 5586 5590 5596 5602 5607 5611 5616 5620 5625 5630 5634 5640 5644 5647 5650 5653 5656 5658 5660 5662 5664 5666 5667 5669 5670 5672 5673 5674 5675 5676 5678 5679 5681 5682 5681 5681 5680 5679 5678 5678 5677 5676 5676 5675 5675 5675 5675 5675 5674 5674 5673
5580 5585 5589 5593 5598 5602 5608 5612 5616 5620 5624 5629 5634 5638 5642 5644 5648 5651 5654 5656 5658 5660 5662 5664 5665 5667 5669 5671 5671 5672 5674 5675 5676 5678 5680 5682 5683 5683 5682 5680 5679 5678 5678 5678 5677 5677 5676 5676 5675 5674 5674 5673 5672 5672
5591 5595 5598 5601 5605 5609 5613 5616 5620 5624 5628 5632 5636 5640 5643 5646 5649 5652 5654 5656 5659 5660 5662 5664 5666 5668 5669 5670 5672 5674 5675 5676 5678 5679 5681 5684 5685 5684 5683 5682 5681 5680 5680 5680 5679 5679 5678 5678 5677 5677 5675 5674 5674 5674
5601 5604 5606 5608 5612 5615 5618 5621 5625 5629 5632 5636 5639 5642 5645 5648 5651 5653 5655 5658 5659 5661 5663 5665 5666 5668 5670 5672 5674 5676 5677 5679 5680 5681 5683 5684 5685 5685 5686 5686 5685 5685 5684 5684 5683 5682 5681 5680 5679 5679 5678 5677 5677 5677
5608 5611 5613 5615 5618 5621 5624 5627 5630 5633 5636 5639 5642 5645 5647 5649 5652 5654 5656 5659 5661 5662 5663 5663 5666 5669 5673 5675 5676 5678 5679 5680 5682 5683 5684 5685 5687 5688 5688 5689 5688 5688 5687 5686 5685 5684 5683 5682 5681 5680 5680 5679 5679 5679
5616 5618 5620 5622 5624 5627 5629 5632 5634 5637 5639 5642 5644 5647 5649 5651 5653 5657 5659 5661 5663 5664 5666 5668 5671 5674 5676 5678 5679 5681 5682 5684 5686 5687 5688 5689 5689 5690 5690 5689 5689 5688 5687 5686 5685 5684 5684 5682 5681 5681 5680 5680 5679 5678
5623 5624 5626 5629 5630 5632 5634 5636 5638 5640 5642 5644 5646 5648 5651 5653 5657 5659 5661 5663 5664 5667 5671 5673 5676 5678 5680 5682 5684 5686 5687 5687 5689 5689 5690 5691 5690 5690 5689 5689 5688 5687 5686 5685 5684 5683 5682 5681 5680 5679 5679 5678 5678 5677
5629 5631 5632 5633 5634 5636 5638 5640 5642 5644 5646 5648 5650 5652 5654 5657 5659 5662 5664 5667 5670 5673 5676 5678 5680 5682 5684 5686 5687 5689 5690 5690 5690 5691 5691 5691 5691 5690 5689 5687 5686 5684 5683 5681 5680 5679 5677 5677 5676 5676 5675 5675 5675 5675
5635 5636 5637 5638 5639 5641 5642 5644 5645 5647 5649 5652 5654 5656 5658 5661 5664 5667 5670 5673 5675 5677 5679 5681 5684 5686 5688 5689 5689 5690 5691 5692 5691 5689 5689 5689 5689 5688 5687 5685 5684 5683 5681 5679 5678 5676 5676 5675 5675 5674 5674 5673 5672 5671
5641 5643 5644 5644 5645 5647 5648 5650 5652 5654 5656 5658 5661 5664 5667 5669 5671 5673 5676 5678 5680 5682 5685 5687 5689 5689 5689 5690 5690 5692 5692 5691 5690 5690 5689 5688 5687 5686 5686 5684 5683 5681 5680 5678 5677 5676 5675 5674 5674 5673 5671 5671 5670 5668
5648 5649 5650 5652 5653 5654 5656 5658 5659 5661 5663 5666 5669 5671 5673 5675 5677 5679 5680 5682 5684 5686 5687 5689 5690 5691 5690 5691 5690 5689 5689 5689 5688 5688 5688 5687 5686 5685 5684 5683 5681 5680 5679 5678 5677 5676 5675 5674 5673 5671 5670 5668 5666 5664
5655 5656 5657 5659 5660 5662 5663 5665 5666 5667 5669 5671 5673 5675 5677 5678 5680 5682 5683 5684 5686 5687 5688 5689 5690 5690 5689 5689 5688 5687 5687 5687 5687 5686 5685 5685 5684 5683 5682 5681 5679 5678 5677 5676 5675 5673 5672 5671 5670 5668 5666 5664 5662 5660